www.pogodaiklimat.ru

Погода и климат >> Архив погоды >> Австралия >> Canberra


АРХИВ ПОГОДЫ в Canberra

Время (UTC), дата Ветер
(напр.,м/с)
 
Видим.   Явления Облачность Т
(С)
Тd
(С)
f
(%)
Тe
(С)
Тes
(С)
Комфортность P
(гПа)
Po
(гПа)
Тmin
(С)
Tmax
(С)
R
(мм)
R24
(мм)
S
(см)
22 6.12 Ю 2 н/о н/о +19.1 +10.6 58 +21 +21 комфорт 1021.8 955.8
23 6.12 З 2 н/о н/о +21.8 +10.6 49 +24 +24 комфорт 1021.4 955.4
00 7.12 С 3 н/о н/о +24.4 +9.6 39 +25 +25 комфорт 1020.5 954.6
02 7.12 СЗ 3 н/о н/о +28.0 +7.8 28 +28 +28 жарко 1018.8 953.0
01 7.12 СЗ 3 н/о н/о +27.1 +8.5 31 +27 +27 жарко 1019.9 954.0 +11.6
03 7.12 С 4 н/о н/о +29.7 +8.2 26 +29 +29 жарко 1018.0 952.2
04 7.12 С 3 н/о н/о +31.7 +6.7 21 +30 +30 жарко 1016.9 951.2
05 7.12 З 3 н/о н/о +32.0 +5.5 19 +30 +30 жарко 1016.1 950.4
06 7.12 СВ 4 н/о н/о +31.3 +2.5 16 +29 +29 жарко 1015.6 950.0
08 7.12 С 4 н/о н/о +30.5 +4.3 19 +28 +28 жарко 1015.7 950.1
07 7.12 СЗ 4 н/о н/о +31.2 +2.4 16 +29 +29 жарко 1015.3 949.7
09 7.12 СВ 5 н/о н/о +28.1 +0.8 17 +26 +26 жарко 1016.2 950.5
10 7.12 СВ 6 н/о н/о +25.8 +3.7 24 +25 +25 комфорт 1016.8 951.1
11 7.12 С 5 н/о н/о +23.9 +6.7 33 +24 +24 комфорт 1017.8 952.0
12 7.12 В 1 н/о н/о +21.7 +7.2 39 +23 +23 комфорт 1018.2 952.4
14 7.12 В 2 н/о н/о +17.2 +8.4 56 +18 +18 тепло 1018.5 952.7
13 7.12 В 3 н/о н/о +19.8 +8.5 48 +21 +21 комфорт 1018.5 952.7 +32.6
15 7.12 ЮВ 1 н/о н/о +15.9 +8.9 63 +17 +17 тепло 1018.2 952.4
16 7.12 штиль 0 н/о н/о +14.6 +9.2 70 +14 +14 тепло 1017.7 951.9
17 7.12 В 2 н/о н/о +14.2 +9.8 75 +14 +14 тепло 1017.6 951.8
18 7.12 В 1 н/о н/о +13.3 +9.4 77 +14 +14 тепло 1017.8 952.0
21 7.12 З 1 н/о н/о +20.0 +11.2 57 +23 +23 комфорт 1019.3 953.4
00 8.12 СЗ 5 н/о н/о +29.3 +7.8 26 +29 +29 жарко 1018.7 952.9
02 8.12 СЗ 5 н/о н/о +30.2 +8.0 25 +29 +29 жарко 1017.7 951.9
01 8.12 СЗ 6 н/о н/о +30.3 +9.2 27 +30 +30 жарко 1018.3 952.5 +12.7
03 8.12 СЗ 6 н/о н/о +30.4 +6.3 22 +29 +29 жарко 1017.0 951.3
04 8.12 З 5 н/о 1/0
[]
+30.9 +6.0 21 +29 +38 жарко 1016.6 950.9
05 8.12 З 4 н/о н/о +32.4 +5.1 18 +30 +30 жарко 1016.0 950.3
06 8.12 СЗ 5 н/о н/о +32.5 +5.1 18 +30 +30 жарко 1015.4 949.8
08 8.12 СЗ 4 н/о н/о +31.4 +1.7 15 +29 +29 жарко 1015.3 949.7
07 8.12 С 5 н/о 1/0
[]
+30.6 +3.6 18 +28 +30 жарко 1015.1 949.5
09 8.12 С 4 н/о н/о +27.4 +4.5 23 +26 +26 жарко 1015.6 950.0
10 8.12 СВ 3 н/о н/о +23.1 +5.1 31 +23 +23 комфорт 1016.3 950.6
11 8.12 В 3 н/о н/о +21.0 +5.0 35 +22 +22 комфорт 1016.7 951.0
12 8.12 В 2 н/о н/о +19.7 +5.7 40 +21 +21 комфорт 1017.1 951.4
14 8.12 ЮВ 3 н/о н/о +19.8 +10.0 53 +21 +21 комфорт 1017.1 951.4
13 8.12 штиль 0 н/о н/о +18.1 +7.2 49 +18 +18 тепло 1017.0 951.3 +33.6
15 8.12 СВ 2 н/о н/о +17.3 +9.0 58 +18 +18 тепло 1016.9 951.2
16 8.12 штиль 0 н/о н/о +17.4 +9.1 58 +17 +17 тепло 1016.7 951.0
17 8.12 СЗ 2 н/о н/о +15.2 +9.8 70 +15 +15 тепло 1016.4 950.7
18 8.12 ЮВ 3 н/о н/о +17.2 +10.8 66 +17 +17 тепло 1016.6 950.9
20 8.12 В 2 н/о н/о +19.4 +10.7 57 +21 +21 комфорт 1017.2 951.5
19 8.12 ЮВ 4 н/о н/о +16.0 +10.1 68 +15 +15 по сезону 1016.8 951.1
21 8.12 ЮВ 2 н/о н/о +22.2 +10.0 46 +24 +24 комфорт 1017.7 951.9
22 8.12 Ю 1 н/о н/о +25.2 +10.3 39 +26 +26 жарко 1017.3 951.6
23 8.12 З 2 н/о н/о +27.2 +11.3 37 +28 +28 жарко 1017.1 951.4
00 9.12 СЗ 4 н/о н/о +29.6 +9.2 28 +29 +29 жарко 1016.7 951.0
02 9.12 З 6 н/о н/о +30.6 +6.5 22 +29 +29 жарко 1016.1 950.4
01 9.12 З 5 н/о 1/0
[]
+31.5 +7.2 22 +30 +40 жарко 1016.4 950.7 +14.6
03 9.12 З 5 н/о н/о +30.1 +7.3 24 +29 +29 жарко 1015.7 950.1
04 9.12 ЮВ 5 н/о 9/9 1000 м
[]
+28.1 +9.9 32 +28 +29 жарко 1015.1 949.5
05 9.12 СВ 3 н/о н/о +29.6 +6.9 24 +28 +28 жарко 1014.2 948.7
06 9.12 В 7 н/о н/о +29.4 +12.3 35 +30 +30 жарко 1013.3 947.8
08 9.12 В 7 н/о н/о +25.5 +13.7 48 +28 +28 жарко 1013.8 948.3
07 9.12 СВ 5 н/о 4/0
[]
+29.0 +10.6 32 +29 +31 жарко 1013.3 947.8
09 9.12 В 4 н/о н/о +23.2 +14.5 58 +27 +27 душно 1014.8 949.2
10 9.12 ЮВ 4 н/о 10/0
[]
+22.2 +14.8 63 +26 +26 душно 1015.7 950.1
11 9.12 ЮВ 3 н/о н/о +20.9 +14.1 65 +24 +24 комфорт 1016.9 951.2
12 9.12 ЮВ 3 н/о н/о +19.5 +15.6 78 +22 +22 комфорт 1017.1 951.4
14 9.12 В 1 н/о н/о +17.7 +15.7 88 +19 +19 тепло 1016.0 950.3
13 9.12 ЮВ 7 4500 м град {туман} 10/10 200 м
[]
+17.7 +16.7 94 +17 +17 тепло 1015.8 950.2 +33.0
15 9.12 ЮЗ 3 н/о н/о +18.0 +17.8 99 +18 +18 тепло 1016.8 951.1
16 9.12 Ю 2 н/о ливневой дождь {туман} 10/0
[]
+18.1 +17.8 98 +19 +19 тепло 1016.2 950.5
17 9.12 В 5 н/о н/о +16.1 +14.8 92 +15 +15 тепло 1016.2 950.5
18 9.12 С 4 н/о н/о +16.4 +14.9 91 +16 +16 тепло 1016.0 950.3
20 9.12 В 2 н/о н/о +16.5 +15.5 94 +17 +17 тепло 1015.8 950.2
19 9.12 В 3 н/о ливневой дождь {туман} 10/10 1500 м
[]
+16.3 +15.8 97 +16 +16 по сезону 1016.1 950.4
21 9.12 штиль 0 н/о н/о +17.1 +15.4 90 +17 +17 по сезону 1015.2 949.6
22 9.12 СВ 3 н/о {туман} 10/0
[]
+17.5 +16.0 91 +18 +21 холодно 1015.1 949.5
23 9.12 С 3 н/о н/о +17.9 +15.0 83 +18 +18 холодно 1015.4 949.8
00 10.12 С 3 н/о н/о +19.3 +14.3 73 +21 +21 комфорт 1015.2 949.6
02 10.12 С 3 н/о н/о +24.4 +14.2 53 +27 +27 жарко 1014.1 948.6
01 10.12 С 1 н/о 5/0
[]
+21.6 +14.3 63 +25 +42 комфорт 1014.7 949.1 +16.1
03 10.12 СЗ 7 н/о н/о +26.5 +13.3 44 +28 +28 жарко 1013.2 947.7
04 10.12 С 8 н/о град н/о +26.5 +14.3 47 +29 +29 жарко 1012.4 947.0
05 10.12 С 8 н/о н/о +26.6 +14.4 47 +29 +29 жарко 1012.1 946.8
06 10.12 СЗ 7 н/о н/о +28.3 +14.5 43 +31 +31 душно 1012.0 946.6
08 10.12 В 7 н/о н/о +19.4 +14.9 75 +20 +20 по сезону 1014.5 948.9
07 10.12 В 6 н/о град 8/8 1500 м
[]
+22.0 +14.6 63 +25 +26 комфорт 1013.2 947.7
09 10.12 В 7 н/о н/о +18.6 +14.7 78 +19 +19 по сезону 1016.3 950.6
10 10.12 В 7 н/о 10/10 300 м
[]
+17.9 +14.6 81 +17 +17 тепло 1017.3 951.6
11 10.12 В 4 н/о н/о +17.6 +14.3 81 +17 +17 тепло 1017.8 952.0
12 10.12 В 5 н/о н/о +17.2 +14.3 83 +17 +17 по сезону 1017.4 951.7
14 10.12 В 3 н/о н/о +17.0 +14.1 83 +17 +17 тепло 1017.4 951.7
13 10.12 В 4 н/о 9/9 300 м
[]
+17.2 +14.5 84 +17 +17 тепло 1017.7 951.9 +29.1
15 10.12 В 3 н/о н/о +16.6 +13.9 84 +16 +16 тепло 1017.1 951.4
16 10.12 В 3 н/о 9/9 300 м
[]
+16.7 +13.8 83 +17 +17 тепло 1016.9 951.2
17 10.12 ЮВ 2 н/о н/о +16.5 +14.0 85 +17 +17 тепло 1016.3 950.6
18 10.12 В 3 н/о н/о +16.4 +13.9 85 +16 +16 тепло 1016.6 950.9
20 10.12 В 4 н/о н/о +16.5 +14.0 85 +16 +16 по сезону 1017.3 951.6
19 10.12 В 5 н/о 10/10 600 м
[]
+16.2 +13.9 86 +15 +15 по сезону 1016.9 951.2
21 10.12 СВ 3 н/о н/о +17.2 +13.7 80 +17 +17 по сезону 1017.6 951.8
22 10.12 СВ 3 н/о 10/10 300 м
[]
+17.4 +13.5 78 +17 +17 холодно 1018.1 952.3
23 10.12 В 4 н/о н/о +18.2 +14.1 77 +18 +18 прохладно 1018.2 952.4
00 11.12 СВ 5 н/о н/о +19.1 +13.9 72 +20 +20 по сезону 1017.8 952.0
02 11.12 В 4 н/о н/о +20.8 +14.2 66 +24 +24 комфорт 1017.2 951.5
01 11.12 В 6 н/о 10/10 600 м
[]
+19.7 +14.3 71 +21 +21 комфорт 1017.8 952.0 +16.2
03 11.12 СВ 3 н/о н/о +22.4 +14.0 59 +26 +26 жарко 1016.1 950.4
04 11.12 В 3 н/о 8/8 1000 м
[]
+22.9 +14.2 58 +26 +29 жарко 1015.2 949.6
05 11.12 СВ 5 н/о н/о +23.8 +13.9 54 +26 +26 жарко 1014.7 949.1
06 11.12 В 6 н/о н/о +22.9 +14.5 59 +27 +27 душно 1014.5 948.9
08 11.12 В 4 н/о н/о +18.9 +14.6 76 +20 +20 по сезону 1016.8 951.1
07 11.12 В 6 н/о град 6/6 1000 м
[]
+20.3 +14.7 70 +23 +23 комфорт 1015.1 949.5
09 11.12 С 8 н/о н/о +17.4 +15.4 88 +16 +16 прохладно 1015.3 949.7
10 11.12 В 4 н/о {туман} 10/10 600 м
[]
+16.7 +14.5 87 +16 +16 тепло 1016.4 950.7
11 11.12 В 5 н/о н/о +16.6 +14.1 85 +16 +16 по сезону 1016.7 951.0
12 11.12 В 4 н/о н/о +16.3 +13.8 85 +16 +16 по сезону 1017.0 951.3
14 11.12 В 3 н/о н/о +15.9 +13.2 84 +15 +15 тепло 1016.2 950.5
13 11.12 В 5 н/о 10/10 600 м
[]
+16.0 +13.5 85 +15 +15 тепло 1016.7 951.0 +25.1
15 11.12 В 2 н/о н/о +15.9 +13.0 83 +16 +16 тепло 1015.7 950.1
16 11.12 В 3 н/о 10/10 600 м
[]
+15.8 +12.4 80 +15 +15 тепло 1014.8 949.2
17 11.12 В 4 н/о н/о +15.7 +11.7 77 +15 +15 тепло 1014.7 949.1
18 11.12 В 4 н/о н/о +15.4 +11.2 76 +15 +15 тепло 1014.2 948.7
20 11.12 СВ 4 н/о н/о +15.0 +11.2 78 +14 +14 по сезону 1015.6 950.0
19 11.12 В 2 н/о 10/10 600 м
[]
+15.1 +11.1 77 +15 +15 по сезону 1015.0 949.4
21 11.12 СВ 3 н/о н/о +15.7 +11.7 77 +15 +15 по сезону 1016.0 950.3
22 11.12 ЮВ 2 н/о 1/0
[]
+16.9 +10.5 66 +17 +25 холодно 1015.3 949.7
23 11.12 В 2 н/о н/о +18.7 +11.0 61 +20 +20 по сезону 1014.9 949.3
00 12.12 Ю 3 н/о н/о +20.8 +12.2 58 +23 +23 комфорт 1013.8 948.3
02 12.12 В 4 н/о н/о +25.2 +11.7 43 +27 +27 жарко 1011.4 946.0
01 12.12 ЮЗ 3 н/о 1/0
[]
+23.1 +11.8 49 +26 +43 жарко 1012.6 947.2 +15.0
03 12.12 СВ 5 н/о н/о +26.3 +10.0 36 +27 +27 жарко 1010.2 944.9
04 12.12 СВ 4 н/о 1/0 2000 м
[]
+26.8 +9.6 34 +27 +39 жарко 1009.4 944.2
05 12.12 С 5 н/о н/о +28.1 +9.4 31 +28 +28 жарко 1008.3 943.1
06 12.12 СВ 6 н/о н/о +26.7 +10.0 35 +27 +27 жарко 1007.6 942.5
08 12.12 СВ 6 н/о н/о +24.9 +10.8 41 +26 +26 жарко 1006.7 941.6
07 12.12 СВ 7 н/о 1/0
[]
+26.5 +10.6 37 +27 +29 жарко 1006.9 941.8
09 12.12 СВ 8 н/о н/о +22.8 +13.0 54 +26 +26 жарко 1007.1 942.0
10 12.12 СВ 5 н/о н/о +20.5 +13.9 66 +23 +23 комфорт 1007.6 942.5
11 12.12 В 4 н/о н/о +19.5 +13.9 70 +21 +21 комфорт 1007.9 942.8
12 12.12 В 4 н/о н/о +19.3 +14.3 73 +21 +21 комфорт 1008.1 943.0
14 12.12 В 4 н/о н/о +18.3 +14.4 78 +19 +19 тепло 1005.5 940.5
13 12.12 СВ 4 н/о 10/10 600 м
[]
+19.0 +14.5 75 +20 +20 тепло 1007.1 942.0 +28.5
15 12.12 С 3 н/о н/о +18.5 +14.4 77 +19 +19 тепло 1006.2 941.2
16 12.12 СВ 3 н/о ливневой дождь {туман} 10/10 600 м
[]
+17.8 +15.2 85 +18 +18 тепло 1005.0 940.1
17 12.12 В 2 н/о н/о +17.0 +16.0 94 +17 +17 тепло 1004.0 939.1
18 12.12 В 2 н/о н/о +17.2 +16.2 94 +18 +18 тепло 1003.7 938.8
20 12.12 ЮВ 1 н/о н/о +16.9 +16.7 99 +18 +18 тепло 1003.2 938.4
19 12.12 штиль 0 н/о ливневой дождь {туман} 10/10 300 м
[]
+17.0 +16.7 98 +17 +17 по сезону 1003.1 938.3
21 12.12 СВ 3 н/о н/о +17.0 +16.8 99 +17 +17 по сезону 1002.9 938.1
22 12.12 ЮВ 3 4000 м дождь {туман} 10/10 300 м
[]
+16.9 +16.7 99 +17 +17 холодно 1001.3 936.6
23 12.12 С 3 н/о н/о +17.8 +17.6 99 +18 +18 прохладно 1000.8 936.1
00 13.12 З 3 н/о н/о +18.1 +17.9 99 +19 +19 по сезону 1000.3 935.7
02 13.12 З 3 н/о н/о +20.1 +18.4 90 +24 +24 комфорт 999.7 935.1
01 13.12 С 2 н/о ливневой дождь {туман} 10/10 100 м
[]
+19.0 +18.3 96 +21 +21 комфорт 1000.1 935.5 +16.8
03 13.12 СЗ 2 н/о н/о +22.5 +18.3 77 +28 +28 душно 998.6 934.1
04 13.12 СЗ 3 н/о ливневой дождь {туман} 10/10 300 м
[]
+23.6 +17.3 68 +27 +27 жарко 997.9 933.4
05 13.12 С 5 н/о н/о +23.7 +17.2 67 +28 +28 душно 997.2 932.9
06 13.12 С 6 н/о н/о +22.9 +16.9 69 +28 +28 душно 995.9 931.5
08 13.12 ЮВ 5 н/о н/о +16.1 +15.8 98 +15 +15 холодно 999.0 934.4
07 13.12 С 5 н/о гроза {осадки} 10/10 1000 м
[]
+22.3 +17.7 75 +27 +27 душно 997.5 933.0
09 13.12 ЮВ 4 н/о н/о +16.6 +15.5 93 +16 +16 прохладно 999.1 934.5
10 13.12 штиль 0 н/о туман местами 8/0 2000 м
[]
+16.3 +15.3 94 +16 +16 тепло 999.8 935.2
11 13.12 Ю 2 н/о н/о +16.0 +15.0 94 +16 +16 по сезону 999.9 935.3
12 13.12 СЗ 4 н/о н/о +16.3 +15.8 97 +16 +16 по сезону 1000.9 936.2
14 13.12 ЮЗ 3 н/о н/о +15.8 +15.6 99 +15 +15 тепло 1000.6 935.9
13 13.12 Ю 3 н/о слабый дождь {туман} 10/10 1500 м
[]
+15.8 +15.6 99 +15 +15 тепло 1001.1 936.4 +24.5
15 13.12 Ю 3 н/о н/о +15.5 +15.3 99 +15 +15 по сезону 1000.0 935.4
16 13.12 ЮВ 3 н/о ливневой дождь {туман} 10/10 300 м
[]
+15.4 +15.2 99 +15 +15 тепло 999.3 934.7
17 13.12 ЮВ 4 н/о н/о +15.2 +15.0 99 +14 +14 тепло 999.5 934.9
18 13.12 З 2 н/о н/о +15.6 +15.4 99 +16 +16 тепло 1000.1 935.5
20 13.12 В 4 н/о н/о +16.7 +16.5 99 +16 +16 по сезону 1001.2 936.5
19 13.12 Ю 3 н/о в посл. час дождь со снегом {туман} 10/10 600 м
[]
+15.5 +15.3 99 +15 +15 по сезону 1000.6 935.9
21 13.12 В 4 н/о н/о +17.5 +16.0 91 +17 +17 по сезону 1001.8 937.1

 

Местоположение метеостанции Canberra (Новый Южный Уэльс, Австралия): широта -35.30 долгота 149.20 высота над уровнем моря 580 м.

В архиве по умолчанию представлена погода в Canberra за последнюю неделю. Архивные данные за месяц целиком и за предыдущие месяцы, начиная с января 2011 года, Вы можете получить, выбрав интересующий диапазон дат из раскрывающегося списка и нажав кнопку "Ввод!".


*Определитесь, кто Вы:
робот инопланетянин человек

Внимание! Время в таблицах - всемирное. Для получения местного времени необходимо прибавить поправку, которая в Canberra равна 10 ч.

Смотрите также архив погоды в соседних городах и на ближайших метеорологических станциях:

Погода в Tuggeranong (Новый Южный Уэльс, Австралия) (16 км)
Погода в Mount Ginini (Новый Южный Уэльс, Австралия) (47 км)
Погода в Braidwood Racecourse Aws (Новый Южный Уэльс, Австралия) (55 км)
Погода в Goulburn Airport Aws (Новый Южный Уэльс, Австралия) (72 км)
Погода в Narriga Aws (Новый Южный Уэльс, Австралия) (83 км)
Погода в Cabramurra Smhea (Новый Южный Уэльс, Австралия) (102 км)
Погода в Moruya Airport (Новый Южный Уэльс, Австралия) (109 км)
Погода в Cooma Airport Aws (Новый Южный Уэльс, Австралия) (113 км)
Погода в Ulladulla Aws (Новый Южный Уэльс, Австралия) (116 км)
Погода в Nowra Ran Air Station (Новый Южный Уэльс, Австралия) (127 км)

Пояснения к столбцам:

Ветер - указаны скорость ветра в м/с - средняя за 10 мин, порывы в срок и между сроками (в фигурных скобках) и направление, откуда дует ветер: С - северный, СВ - северо-восточный, В - восточный, ЮВ - юго-восточный, Ю - южный, ЮЗ - юго-западный, З - западный, СЗ - северо-западный.
Видимость - горизонтальная дальность видимости в метрах или километрах. При видимости от 1 до 10 км при отсутствии осадков обычно наблюдается дымка, при ухудшении видимости до 1 км и менее - туман. В сухую погоду видимость может ухудшаться дымом, пылью или мглою.
Явления - указаны атмосферные явления, наблюдавшиеся в срок или в последний час перед сроком; фигурными скобками обозначены явления, наблюдавшиеся между сроками (за 1-3 часа до срока); квадратными скобками обозначены град или гололедные отложения с указанием их диаметра в мм.
Облачность - указаны через наклонную черту общая и нижняя облачность в баллах и высота нижней границы облаков в метрах; квадратными скобками обозначены формы облаков: Ci - перистые, Cs - перисто-слоистые, Cc - перисто-кучевые, Ac - высококучевые, As - высокослоистые, Sc - слоисто-кучевые, Ns - слоисто-дождевые, Cu - кучевые, Cb - кучево-дождевые. Подробнее классификацию облаков см. в Атласе облаков (PDF).
T - Температура воздуха - температура, измеренная на высоте 2 м над землей.
Td - Температура точки росы - температура, при понижении до которой содержащийся в воздухе водяной пар достигнет насыщения.
f - Относительная влажность воздуха - влажноcть воздуха, измеренная на высоте 2 м над землей.
Te - Эффективная температура - температура, которую ощущает одетый по сезону человек в тени. Характеристика душности погоды. При расчете учитывается влияние влажности воздуха и скорости ветра на теплоощущения человека.
Tes - Эффективная температура на солнце - температура, которую ощущает человек, с поправкой на солнечный нагрев. Характеристика знойности погоды. Зависит от высоты солнца над горизонтом, облачности и скорости ветра. Ночью, в пасмурную погоду, а также при ветре 12 м/с и более поправка равна нулю.
P - Атмосферное давление - приведенное к уровню моря атмосферное давление.
Po - Атмосферное давление - измеренное на уровне метеостанции атмосферное давление.
Tmin - Минимальная температура - минимум температуры воздуха на высоте 2 м над землей.
Tmax - Максимальная температура - максимум температуры воздуха на высоте 2 м над землей.
R - Количество осадков - Количество выпавших осадков за период времени, мм. При наведении курсора мыши на число - период времени, за который выпало указанное количество осадков.
R24 - Количество осадков - Количество выпавших осадков за 24 часа, мм.
S - Снежный покров - Высота снежного покрова, см. При наведении курсора мыши на число - состояние снежного покрова и степень покрытия местности в баллах.